Tracking 29892 objects as of 21-Nov-2024
HD Live streaming from Space Station
objects crossing your sky now

STARLINK-30128

Track STARLINK-30128 now!
10-day predictions
STARLINK-30128 is classified as:


NORAD ID: 56832
Int'l Code: 2023-079K
Perigee: 565.4 km
Apogee: 566.9 km
Inclination: 43.0 °
Period: 95.8 minutes
Semi major axis: 6937 km
RCS: Unknown
Launch date: June 4, 2023
Source: United States (US)
Launch site: AIR FORCE EASTERN TEST RANGE (AFETR)
Your satellite tracking list
Your tracking list is empty




NASA's NSSDC Master Catalog

Two Line Element Set (TLE):
1 56832U 23079K   24325.86307050  .00004420  00000-0  34185-3 0  9994
2 56832  43.0015 136.0165 0001055 264.4265  95.6457 15.02559201 75504
Source of the keplerian elements: AFSPC